(370757) = 2004 RL250

Discovered at Socorro on 2004-09-13 by LINEAR.

Orbit

Orbit type: Main Belt

Note: WebGL enabled browser required.

epoch2024-03-31.0
epoch JD2460400.5
perihelion date2022-06-24.44621
perihelion JD2459754.94621
argument of perihelion (°)163.62665
ascending node (°)187.82678
inclination (°)34.95945
eccentricity0.1509444
perihelion distance (AU)2.2992809
Tisserand w.r.t. Jupiter3.1
ΔV w.r.t. Earth (km/sec)14.6
semimajor axis (AU)2.7080452
mean anomaly (°)142.77508
mean daily motion (°/day)0.22116680
aphelion distance (AU)3.117
period (years)4.46
P-vector [x]0.98196856
P-vector [y]-0.15436729
P-vector [z]0.10912605
Q-vector [x]0.17218914
Q-vector [y]0.96861641
Q-vector [z]-0.17925721
absolute magnitude16.12
phase slope0.15
uncertainty0
referenceMPEC 2024-F14
observations used458
oppositions12
arc length (days)10372
first opposition used1995
last opposition used2024
residual rms (arc-secs)0.73
perturbers coarse indicatorM-v
perturbers precise indicator003Ek
first observation date used1995-10-24.0
last observation date used2024-03-17.0
computer nameMPCLINUX
JD of orbit computation2456639.689132
perihelion JD uncertainty (days)1.9968E-04
argument of perihelion uncertainty (°)5.3625E-05
ascending node uncertainty (°)9.2153E-06
inclination uncertainty (°)1.3996E-05
eccentricity uncertainty 1.3752E-07
perihelion distance uncertainty (AU)3.6779E-07
Minimum Orbit Intersection Distances (in AU)
for orbit epoch: 2460400.5, reference: E2024-F14
Mercury1.94683
Venus1.58489
Earth1.30526
Mars0.91246
Jupiter2.35765
Saturn6.43342
Uranus15.3711
Neptune27.4921

Observations

468 total observations over interval: 1995 10 24.10639 – 2024 03 17.314941
These data are available for download (format description).

Date (UT) J2000 RA J2000 Dec Magn Location Ref
1995 10 24.10639 23 02 12.73 -01 03 18.3 19.6 V 691 – Steward Observatory, Kitt Peak-Spacewatch MPS 313135
1995 10 24.12586 23 02 12.80 -01 03 39.7   691 – Steward Observatory, Kitt Peak-Spacewatch MPS 313135
1995 10 24.14515 23 02 12.81 -01 03 59.9   691 – Steward Observatory, Kitt Peak-Spacewatch MPS 313135
2004 09 10.28663 00 18 13.45 +12 24 14.4 18.6 C 704 – Lincoln Laboratory ETS, New Mexico MPS 289823
2004 09 10.29785 00 18 13.18 +12 23 59.4 18.3 C 704 – Lincoln Laboratory ETS, New Mexico MPS 289823
2004 09 10.30907 00 18 13.05 +12 23 46.0 18.2 C 704 – Lincoln Laboratory ETS, New Mexico MPS 289823
2004 09 10.32030 00 18 12.41 +12 23 32.1 19.2 C 704 – Lincoln Laboratory ETS, New Mexico MPS 289823
2004 09 10.33154 00 18 12.07 +12 23 17.7 19.0 C 704 – Lincoln Laboratory ETS, New Mexico MPS 289823
2004 09 13.29019 00 16 27.17 +11 20 07.1 18.7   704 – Lincoln Laboratory ETS, New Mexico MPS 113294
2004 09 13.30222 00 16 26.68 +11 19 51.5 19.1   704 – Lincoln Laboratory ETS, New Mexico MPS 113294
2004 09 13.31397 00 16 26.25 +11 19 35.2 19.0   704 – Lincoln Laboratory ETS, New Mexico MPS 113294
2004 09 13.32595 00 16 25.76 +11 19 20.3 19.4   704 – Lincoln Laboratory ETS, New Mexico MPS 113294
2004 09 13.33768 00 16 25.30 +11 19 05.5 19.2   704 – Lincoln Laboratory ETS, New Mexico MPS 113294
2004 09 13.40127 00 16 22.90 +11 17 41.2 19.3   644 – Palomar Mountain/NEAT MPS 113294
2004 09 13.41458 00 16 22.32 +11 17 23.8 18.4 R 699 – Lowell Observatory-LONEOS MPS 120540
2004 09 13.42302 00 16 22.04 +11 17 12.6 19.1   644 – Palomar Mountain/NEAT MPS 113294
2004 09 13.42920 00 16 21.76 +11 17 04.1   699 – Lowell Observatory-LONEOS MPS 120540
2004 09 13.44380 00 16 21.23 +11 16 45.4   699 – Lowell Observatory-LONEOS MPS 120540
2004 09 13.44860 00 16 21.07 +11 16 39.0 19.0   644 – Palomar Mountain/NEAT MPS 113294
2004 09 13.45839 00 16 20.63 +11 16 25.8   699 – Lowell Observatory-LONEOS MPS 120540
2004 09 15.33911 00 15 10.47 +10 34 45.4 18.6   704 – Lincoln Laboratory ETS, New Mexico MPS 113294
2004 09 15.35075 00 15 09.99 +10 34 30.2 18.9   704 – Lincoln Laboratory ETS, New Mexico MPS 113294
2004 09 15.36234 00 15 09.49 +10 34 13.6 19.1   704 – Lincoln Laboratory ETS, New Mexico MPS 113294
2004 09 15.37405 00 15 09.04 +10 33 58.6 19.5   704 – Lincoln Laboratory ETS, New Mexico MPS 113294
2004 09 15.38565 00 15 08.65 +10 33 41.8 19.2   704 – Lincoln Laboratory ETS, New Mexico MPS 113294
2004 09 16.28242 00 14 34.53 +10 13 29.0 18.3   704 – Lincoln Laboratory ETS, New Mexico MPS 113294
2004 09 16.29406 00 14 33.98 +10 13 13.1 18.9   704 – Lincoln Laboratory ETS, New Mexico MPS 113294
2004 09 16.30596 00 14 33.52 +10 12 57.3 18.9   704 – Lincoln Laboratory ETS, New Mexico MPS 113294
2004 09 16.31784 00 14 32.95 +10 12 41.0 19.6   704 – Lincoln Laboratory ETS, New Mexico MPS 113294
2004 09 16.32959 00 14 32.55 +10 12 24.1 18.7   704 – Lincoln Laboratory ETS, New Mexico MPS 113294
2004 09 18.30430 00 13 15.39 +09 27 07.7 18.7   704 – Lincoln Laboratory ETS, New Mexico MPS 114556
2004 09 18.31690 00 13 14.87 +09 26 50.6 19.8   704 – Lincoln Laboratory ETS, New Mexico MPS 114556
2004 09 18.32939 00 13 14.35 +09 26 33.5 19.0   704 – Lincoln Laboratory ETS, New Mexico MPS 114556
2004 09 18.34195 00 13 13.84 +09 26 15.6 19.5   704 – Lincoln Laboratory ETS, New Mexico MPS 114556
2004 09 18.35438 00 13 13.29 +09 25 59.0 20.2   704 – Lincoln Laboratory ETS, New Mexico MPS 114556
2004 09 22.23277 00 10 37.90 +07 54 38.8 18.9   704 – Lincoln Laboratory ETS, New Mexico MPS 114556
2004 09 22.24489 00 10 37.39 +07 54 21.6 19.2   704 – Lincoln Laboratory ETS, New Mexico MPS 114556
2004 09 22.25702 00 10 36.87 +07 54 04.2 19.3   704 – Lincoln Laboratory ETS, New Mexico MPS 114556
2004 09 22.26917 00 10 36.33 +07 53 46.2 19.5   704 – Lincoln Laboratory ETS, New Mexico MPS 114556
2004 09 22.28133 00 10 35.85 +07 53 28.8 19.2   704 – Lincoln Laboratory ETS, New Mexico MPS 114556
2004 09 24.23449 00 09 16.54 +07 06 36.0 18.8   704 – Lincoln Laboratory ETS, New Mexico MPS 114556
2004 09 24.24689 00 09 15.97 +07 06 18.2 19.5   704 – Lincoln Laboratory ETS, New Mexico MPS 114556
2004 09 24.25930 00 09 15.42 +07 06 00.6 19.2   704 – Lincoln Laboratory ETS, New Mexico MPS 114556
2004 09 24.27170 00 09 14.92 +07 05 42.7 19.3   704 – Lincoln Laboratory ETS, New Mexico MPS 114556
2004 09 24.28417 00 09 14.38 +07 05 24.7 18.9   704 – Lincoln Laboratory ETS, New Mexico MPS 114556
2004 10 05.24028 00 02 03.48 +02 39 49.4 18.5 R 699 – Lowell Observatory-LONEOS MPS 115834
2004 10 05.26056 00 02 02.68 +02 39 21.3   699 – Lowell Observatory-LONEOS MPS 115834
2004 10 05.28084 00 02 01.85 +02 38 52.4   699 – Lowell Observatory-LONEOS MPS 115834
2004 10 05.30114 00 02 01.10 +02 38 22.9   699 – Lowell Observatory-LONEOS MPS 115834
2004 10 07.22098 00 00 52.14 +01 52 44.7 19.9 R 683 – Goodricke-Pigott Observatory, Tucson MPS 115834
2004 10 07.23437 00 00 51.66 +01 52 26.1 20.7 R 683 – Goodricke-Pigott Observatory, Tucson MPS 115834
2004 10 07.24773 00 00 51.14 +01 52 07.2 20.3 R 683 – Goodricke-Pigott Observatory, Tucson MPS 115834
2004 10 07.27816 00 00 50.00 +01 51 22.9 19.0   704 – Lincoln Laboratory ETS, New Mexico MPS 115834
2004 10 07.28947 00 00 49.58 +01 51 06.4 19.2   704 – Lincoln Laboratory ETS, New Mexico MPS 115834
2004 10 07.30060 00 00 49.15 +01 50 50.5 19.2   704 – Lincoln Laboratory ETS, New Mexico MPS 115834
2004 10 07.32284 00 00 48.36 +01 50 18.0 19.9   704 – Lincoln Laboratory ETS, New Mexico MPS 115834
2004 10 08.21414 00 00 17.63 +01 29 19.6 18.9 R 699 – Lowell Observatory-LONEOS MPS 115834
2004 10 08.23442 00 00 16.86 +01 28 52.2   699 – Lowell Observatory-LONEOS MPS 115834
2004 10 08.25468 00 00 16.09 +01 28 23.8   699 – Lowell Observatory-LONEOS MPS 115834
2004 10 08.27495 00 00 15.41 +01 27 54.9   699 – Lowell Observatory-LONEOS MPS 115834
2004 10 09.19554 23 59 44.32 +01 06 24.6 18.8   704 – Lincoln Laboratory ETS, New Mexico MPS 116724
2004 10 09.20625 23 59 43.92 +01 06 09.8 19.6   704 – Lincoln Laboratory ETS, New Mexico MPS 116724
2004 10 09.21696 23 59 43.55 +01 05 55.0 19.4   704 – Lincoln Laboratory ETS, New Mexico MPS 116724
2004 10 09.22768 23 59 43.15 +01 05 40.8 19.4   704 – Lincoln Laboratory ETS, New Mexico MPS 116724
2004 10 09.23839 23 59 42.82 +01 05 25.4 19.8   704 – Lincoln Laboratory ETS, New Mexico MPS 116724
2004 10 18.19766 23 55 26.43 -02 12 31.5 19.4   704 – Lincoln Laboratory ETS, New Mexico MPS 117667
2004 10 18.20874 23 55 26.16 -02 12 46.2 19.6   704 – Lincoln Laboratory ETS, New Mexico MPS 117667
2004 10 18.21981 23 55 25.85 -02 12 58.4 19.4   704 – Lincoln Laboratory ETS, New Mexico MPS 117667
2004 10 18.24195 23 55 25.28 -02 13 28.2 19.8   704 – Lincoln Laboratory ETS, New Mexico MPS 117667
2007 03 15.37153 13 15 16.32 -04 25 11.5 20.7 V 691 – Steward Observatory, Kitt Peak-Spacewatch MPS 313135
2007 03 15.38916 13 15 15.68 -04 24 57.5 20.8 V 691 – Steward Observatory, Kitt Peak-Spacewatch MPS 313135
2007 03 15.40679 13 15 15.02 -04 24 43.7 20.8 V 691 – Steward Observatory, Kitt Peak-Spacewatch MPS 313135
2010 02 17.998247 04 40 59.97 -17 24 25.8   C51 – WISE MPS 371984
2010 02 17.998374 04 41 00.07 -17 24 25.8   C51 – WISE MPS 371984
2010 02 18.130677 04 41 04.67 -17 22 49.4   C51 – WISE MPS 313135
2010 02 18.19677 04 41 06.99 -17 22 01.2   C51 – WISE MPS 313135
2010 02 18.262981 04 41 09.47 -17 21 14.1   C51 – WISE MPS 313135
2010 02 18.395286 04 41 14.22 -17 19 36.4   C51 – WISE MPS 313135
2010 02 18.461502 04 41 16.59 -17 18 48.9   C51 – WISE MPS 371984
2010 02 18.527706 04 41 18.97 -17 18 00.4   C51 – WISE MPS 313135
2010 02 18.593794 04 41 21.35 -17 17 13.8   C51 – WISE MPS 313135
2010 02 18.660010 04 41 23.78 -17 16 26.5   C51 – WISE MPS 313135
2010 02 18.726098 04 41 26.12 -17 15 37.9   C51 – WISE MPS 313135
2010 02 18.726226 04 41 26.21 -17 15 37.6   C51 – WISE MPS 313135
2010 02 18.990834 04 41 35.82 -17 12 24.7   C51 – WISE MPS 313135
2010 02 19.123138 04 41 40.66 -17 10 48.7   C51 – WISE MPS 313135
2010 02 19.255442 04 41 45.54 -17 09 13.3   C51 – WISE MPS 313135
2012 05 11.26522 16 05 08.56 +19 24 24.5 20.5 V 691 – Steward Observatory, Kitt Peak-Spacewatch MPS 423682
